EDT,Max TemperatureF,Mean TemperatureF,Min TemperatureF,Max Dew PointF,MeanDew PointF,Min DewpointF,Max Humidity, Mean Humidity, Min Humidity, Max Sea Level PressureIn, Mean Sea Level PressureIn, Min Sea Level PressureIn, Max VisibilityMiles, Mean VisibilityMiles, Min VisibilityMiles, Max Wind SpeedMPH, Mean Wind SpeedMPH, Max Gust SpeedMPH,PrecipitationIn, CloudCover, Events, WindDirDegrees
2013-9-1,91,81,71,77,71,68,100,77,46,29.99,29.95,29.88,10,9,2,12,5,16,0.00,2,Rain,217
2013-9-2,91,80,69,73,71,66,100,77,43,29.99,29.94,29.88,10,10,7,14,6,16,0.00,1,,227
2013-9-3,91,81,71,77,71,63,100,78,38,30.02,29.94,29.91,10,9,5,13,6,17,0.00,2,,233
2013-9-4,93,81,69,73,68,59,100,71,32,30.13,30.06,30.00,10,9,2,9,3,,0.00,1,,243
2013-9-5,91,80,69,73,65,55,100,67,31,30.16,30.12,30.08,10,9,2,8,2,10,0.00,1,,1
2013-9-6,87,76,66,70,63,54,100,68,31,30.18,30.14,30.10,10,10,7,10,3,16,0.00,0,,34
2013-9-7,87,74,62,64,60,54,100,64,31,30.16,30.10,30.04,10,10,10,7,3,,0.00,1,,30
2013-9-8,91,78,64,68,61,54,100,64,29,30.06,30.02,29.97,10,10,7,10,1,,0.00,1,,62
2013-9-9,91,78,66,70,62,50,100,62,24,30.18,30.10,30.03,10,10,7,9,2,16,0.00,1,,105
2013-9-10,91,78,66,72,64,57,100,67,33,30.29,30.23,30.18,10,9,4,12,4,17,0.00,1,,107
2013-9-11,91,76,62,70,61,52,100,66,27,30.27,30.21,30.13,10,10,7,15,2,18,0.00,0,,114
2013-9-12,91,78,64,70,63,57,100,66,31,30.15,30.04,29.93,10,10,7,10,3,16,0.00,2,,252
2013-9-13,89,79,69,72,63,54,100,63,29,29.93,29.87,29.81,10,10,5,12,4,16,0.00,0,,307
2013-9-14,82,72,62,59,53,46,78,52,37,30.12,30.01,29.91,10,10,10,16,8,21,0.00,2,,44
2013-9-15,87,74,62,68,62,59,88,66,38,30.21,30.16,30.12,10,10,10,9,5,17,0.00,3,,99
2013-9-16,89,80,71,77,70,61,100,77,38,30.18,30.14,30.07,10,9,4,8,3,,0.00,4,Rain,261
2013-9-17,78,73,66,73,60,54,100,65,42,30.30,30.22,30.14,10,10,5,17,7,25,0.00,6,,59
2013-9-18,80,70,60,57,53,50,82,61,34,30.30,30.24,30.19,10,10,10,12,6,16,0.00,3,,48
2013-9-19,84,70,55,59,55,50,100,66,33,30.23,30.18,30.13,10,10,10,8,1,,0.00,1,,83
2013-9-20,87,74,60,66,61,55,100,68,33,30.14,30.07,29.98,10,10,10,9,2,,0.00,2,,208
2013-9-21,82,74,66,72,66,63,100,79,51,30.00,29.88,29.75,10,10,4,13,7,20,0.00,3,Rain,196
2013-9-22,82,72,60,70,58,50,100,69,34,29.93,29.83,29.77,10,10,7,15,7,20,0.00,1,,3
2013-9-23,80,68,55,59,54,50,100,66,34,30.09,30.02,29.93,10,10,10,9,4,,0.00,1,,76
2013-9-24,78,68,57,61,56,52,100,69,39,30.10,30.04,29.96,10,10,10,15,4,17,0.00,6,,86
2013-9-25,77,70,62,66,60,52,100,80,41,29.96,29.91,29.88,10,9,2,13,6,20,0.00,7,Rain,67
2013-9-26,78,70,62,64,59,54,100,77,42,30.04,29.96,29.90,10,10,7,15,7,20,0.00,5,,23
2013-9-27,78,66,55,59,52,46,100,64,32,30.18,30.11,30.04,10,10,10,16,6,22,0.00,0,,36
2013-9-28,77,65,53,55,51,46,100,65,34,30.25,30.19,30.16,10,10,10,16,5,22,0.00,2,,40
2013-9-29,73,63,53,55,52,48,100,67,41,30.18,30.13,30.06,10,10,10,10,5,,0.00,4,,30
2013-9-30,75,63,51,55,51,46,100,71,36,30.13,30.09,30.05,10,10,10,8,1,,0.00,1,,48